INTELSAT 35E (IS-35E) (42818 NORAD) Tracking and Keplerian Element Data

This shows tracking and keplerian element data for the satellite.

Feedback or suggestion? Click here.




ElementValue
Catalog42818
NameINTELSAT 35E (IS-35E)
Epoch Orbit387
Epoch Day201.26805687
Epoch Year2018
RAAN22.6181
Inclination0.002
Eccentricity0.0001062
Argument of Perigee79.1161
Mean Anonmoly258.2777
Mean Motion1.00269188
Decay Rate-2.55E-06
L11 42818U 17041A 18201.26805687 -.00000255 00000-0 00000+0 0 9992
L22 42818 0.0020 22.6181 0001062 79.1161 258.2777 1.00269188 3872

Live tracking and technical data element details for INTELSAT 35E (IS-35E) (NORAD 42818). INTELSAT 35E (IS-35E) can be tracked NOW for your location showing map with azimuth and elevation plus other details from your city location.

Track the satellite on the map from your city or location and see movement details for azimuth, elevation, latitude, longitude, range, height, and movement on the map or in text.







IsCatalogInMostPopularTable: catalog: 42818, numindb: 77
Update: records affected: 1



GetName: 42818 INTELSAT 35E (IS-35E)

Hit Count: updated at: Sat, 21 Jul 2018 07:57:52 GMT